User: anonymous   Login
Location: Fort Wayne
(41.1310°N, 85.1290°W)
Time: 03:10:51
(UTC-04:00)
Language:

Cosmos 2056 Rocket - Orbit

View from above orbital plane
View from above orbital plane
View from above satellite
View from above satellite

Ground track
Ground track

The orbit data is extracted from the following two-line orbital elements,

1 20433U 90004B   17176.54757545 +.00000027 +00000-0 +18072-4 0  9990
2 20433 074.0361 340.8118 0040082 108.4187 288.8646 14.35991015436129
Epoch (UTC): 25 June 2017 13:08:30
Eccentricity: 0.0040082
inclination: 74.0361°
perigee height: 743 km
apogee height: 800 km
right ascension of ascending node: 340.8118°
argument of perigee: 108.4187°
revolutions per day: 14.35991015
mean anomaly at epoch: 288.8646°
orbit number at epoch: 43612

The dashed part of the orbit path shows where the satellite is in the earth's shadow,  

DLR